Total_Precipitation_Accumulation
1.15 1.26 1.34 1.41 1.46 1.42 1.44 1.48 1.55 1.54 1.43 1.24 1.18 1.13 1.08 1.08 1.25 0.99 0.98 1.19 1.10 1.03 0.96 0.90 0.86 0.79 0.73 0.68 0.65 0.64 0.64 0.66 0.71 0.74 0.77 0.83 0.92 1.04
0.90 1.00 1.11 1.22 1.37 1.44 1.52 1.54 1.52 1.52 1.46 1.27 1.20 1.18 1.11 1.04 1.25 1.04 1.02 1.08 0.95 0.86 0.79 0.73 0.70 0.65 0.61 0.60 0.60 0.58 0.57 0.57 0.57 0.57 0.61 0.64 0.69 0.78
0.72 0.78 0.87 0.95 1.08 1.18 1.28 1.33 1.40 1.41 1.41 1.32 1.23 1.20 1.17 1.14 1.13 0.99 0.91 0.86 0.83 0.78 0.67 0.62 0.59 0.55 0.53 0.55 0.56 0.55 0.55 0.54 0.53 0.53 0.55 0.57 0.58 0.60
0.57 0.62 0.69 0.72 0.81 0.85 0.94 1.03 1.10 1.17 1.20 1.29 1.33 1.25 1.19 1.17 1.09 0.95 0.76 0.66 0.67 0.71 0.63 0.61 0.60 0.59 0.57 0.56 0.56 0.54 0.51 0.45 0.44 0.46 0.49 0.48 0.48 0.51
0.44 0.46 0.51 0.54 0.59 0.60 0.64 0.70 0.79 0.91 1.06 1.16 1.23 1.21 1.18 1.16 1.09 0.88 0.73 0.70 0.56 0.57 0.54 0.54 0.56 0.57 0.55 0.50 0.46 0.44 0.42 0.35 0.29 0.29 0.31 0.34 0.35 0.37
0.34 0.37 0.41 0.43 0.45 0.47 0.49 0.54 0.62 0.78 0.93 1.01 0.99 0.98 1.00 0.96 0.95 0.87 0.75 0.65 0.55 0.41 0.40 0.37 0.38 0.37 0.39 0.37 0.35 0.34 0.33 0.32 0.29 0.25 0.22 0.20 0.19 0.18
0.28 0.28 0.31 0.36 0.40 0.40 0.40 0.48 0.58 0.73 0.83 0.87 0.85 0.80 0.78 0.80 0.80 0.74 0.70 0.63 0.52 0.39 0.37 0.31 0.30 0.32 0.34 0.34 0.32 0.28 0.24 0.21 0.21 0.18 0.16 0.14 0.12 0.11
0.31 0.27 0.27 0.27 0.30 0.33 0.36 0.43 0.52 0.60 0.64 0.68 0.69 0.71 0.69 0.68 0.71 0.69 0.67 0.67 0.63 0.47 0.43 0.36 0.28 0.35 0.36 0.33 0.26 0.21 0.19 0.18 0.18 0.16 0.15 0.15 0.13 0.10
0.36 0.34 0.28 0.24 0.31 0.34 0.35 0.38 0.42 0.44 0.50 0.60 0.66 0.67 0.65 0.70 0.78 0.78 0.76 0.73 0.67 0.53 0.54 0.53 0.40 0.41 0.30 0.23 0.22 0.18 0.16 0.17 0.16 0.12 0.10 0.10 0.10 0.09
0.36 0.37 0.38 0.39 0.35 0.35 0.31 0.33 0.38 0.44 0.49 0.53 0.64 0.65 0.60 0.65 0.77 0.80 0.75 0.70 0.66 0.62 0.63 0.65 0.49 0.41 0.29 0.35 0.32 0.23 0.17 0.19 0.18 0.11 0.08 0.07 0.07 0.08
0.28 0.31 0.33 0.35 0.34 0.35 0.35 0.38 0.40 0.45 0.44 0.50 0.55 0.60 0.65 0.68 0.69 0.71 0.78 0.85 0.82 0.72 0.68 0.71 0.60 0.47 0.38 0.43 0.40 0.30 0.27 0.32 0.29 0.18 0.10 0.08 0.07 0.08
0.27 0.28 0.29 0.26 0.25 0.26 0.30 0.41 0.50 0.48 0.45 0.49 0.65 0.82 0.89 0.86 0.76 0.76 0.85 0.90 0.89 0.91 0.77 0.74 0.73 0.58 0.54 0.45 0.43 0.45 0.48 0.55 0.49 0.33 0.18 0.12 0.12 0.16
0.28 0.29 0.29 0.23 0.20 0.21 0.28 0.39 0.45 0.43 0.48 0.64 0.84 0.95 0.93 0.84 0.74 0.70 0.76 0.85 0.90 0.96 0.78 0.73 0.78 0.73 0.76 0.63 0.44 0.47 0.59 0.73 0.74 0.60 0.37 0.24 0.19 0.19
0.28 0.27 0.26 0.24 0.21 0.22 0.25 0.31 0.33 0.41 0.59 0.79 0.89 0.87 0.74 0.62 0.60 0.57 0.59 0.66 0.78 0.79 0.69 0.68 0.77 0.77 0.78 0.71 0.55 0.51 0.64 0.80 0.86 0.77 0.60 0.45 0.35 0.29
0.27 0.25 0.25 0.26 0.29 0.35 0.36 0.34 0.40 0.55 0.69 0.78 0.81 0.74 0.63 0.55 0.52 0.52 0.51 0.58 0.62 0.57 0.48 0.50 0.62 0.66 0.72 0.72 0.69 0.72 0.80 0.96 0.98 0.89 0.77 0.64 0.50 0.39
0.26 0.30 0.38 0.43 0.45 0.47 0.51 0.55 0.57 0.59 0.59 0.67 0.67 0.62 0.53 0.48 0.47 0.44 0.48 0.53 0.58 0.58 0.49 0.44 0.51 0.62 0.73 0.73 0.79 0.87 0.88 1.07 1.09 0.98 0.90 0.82 0.68 0.52
0.24 0.35 0.52 0.58 0.58 0.56 0.55 0.54 0.56 0.54 0.55 0.56 0.54 0.53 0.51 0.46 0.44 0.40 0.41 0.44 0.51 0.53 0.51 0.45 0.47 0.50 0.52 0.56 0.67 0.74 0.79 0.94 1.05 0.99 0.92 0.99 0.97 0.75
0.28 0.47 0.56 0.60 0.62 0.56 0.51 0.48 0.46 0.46 0.45 0.45 0.46 0.46 0.47 0.44 0.42 0.38 0.36 0.39 0.44 0.43 0.42 0.39 0.39 0.40 0.38 0.40 0.60 0.69 0.72 0.90 0.98 0.89 0.78 0.91 1.05 0.89
0.30 0.42 0.49 0.54 0.54 0.49 0.45 0.44 0.44 0.41 0.38 0.38 0.40 0.41 0.40 0.39 0.38 0.37 0.33 0.35 0.39 0.39 0.36 0.31 0.30 0.31 0.33 0.45 0.63 0.80 0.78 0.81 0.82 0.76 0.70 0.71 0.91 0.92
0.31 0.36 0.41 0.43 0.45 0.43 0.40 0.37 0.36 0.34 0.32 0.32 0.33 0.35 0.36 0.35 0.32 0.32 0.31 0.29 0.32 0.34 0.32 0.29 0.27 0.29 0.31 0.41 0.63 0.81 0.82 0.66 0.58 0.63 0.66 0.67 0.78 0.78
0.28 0.31 0.32 0.31 0.32 0.34 0.35 0.34 0.30 0.29 0.27 0.27 0.27 0.29 0.30 0.31 0.31 0.27 0.24 0.19 0.23 0.26 0.27 0.28 0.27 0.22 0.21 0.24 0.43 0.63 0.71 0.77 0.65 0.55 0.54 0.56 0.54 0.45
0.24 0.27 0.26 0.25 0.25 0.25 0.24 0.24 0.23 0.21 0.19 0.20 0.23 0.26 0.26 0.26 0.25 0.22 0.19 0.20 0.20 0.21 0.22 0.23 0.22 0.18 0.19 0.25 0.41 0.55 0.57 0.53 0.52 0.54 0.52 0.37 0.26 0.28
0.23 0.24 0.21 0.20 0.19 0.18 0.17 0.16 0.16 0.16 0.15 0.17 0.19 0.22 0.21 0.19 0.18 0.15 0.12 0.10 0.10 0.11 0.14 0.17 0.16 0.15 0.15 0.19 0.26 0.32 0.32 0.28 0.21 0.21 0.36 0.41 0.32 0.32